Time,TemperatureF,DewpointF,PressureIn,WindDirection,WindDirectionDegrees,WindSpeedMPH,WindSpeedGustMPH,Humidity,HourlyPrecipIn,Conditions,Clouds,dailyrainin,SoftwareType,DateUTC
2013-10-06 00:14:00,62.0,60.0,30.03,SW,228,0.0,2.0,92,0.00,,,0.00,,2013-10-06 04:14:00,
2013-10-06 00:24:00,62.0,60.0,30.03,SW,228,1.0,3.0,92,0.00,,,0.00,,2013-10-06 04:24:00,
2013-10-06 00:44:00,62.0,60.0,30.03,SW,228,0.0,1.0,92,0.00,,,0.00,,2013-10-06 04:44:00,
2013-10-06 00:54:00,62.0,60.0,30.02,SW,228,0.0,2.0,92,0.00,,,0.00,,2013-10-06 04:54:00,
2013-10-06 01:13:00,61.0,59.0,30.02,SW,228,0.0,2.0,92,0.00,,,0.00,,2013-10-06 05:13:00,
2013-10-06 01:23:00,61.0,59.0,30.01,SW,228,0.0,2.0,92,0.00,,,0.00,,2013-10-06 05:23:00,
2013-10-06 01:52:00,61.0,59.0,30.01,SW,228,0.0,2.0,92,0.00,,,0.00,,2013-10-06 05:52:00,
2013-10-06 02:12:00,61.0,59.0,30.01,SW,228,0.0,2.0,92,0.00,,,0.00,,2013-10-06 06:12:00,
2013-10-06 02:22:00,61.0,59.0,30.00,SW,228,0.0,2.0,92,0.00,,,0.00,,2013-10-06 06:22:00,
2013-10-06 02:42:00,61.0,59.0,30.00,SW,228,0.0,1.0,92,0.00,,,0.00,,2013-10-06 06:42:00,
2013-10-06 02:52:00,61.0,59.0,30.00,SW,228,0.0,2.0,92,0.00,,,0.00,,2013-10-06 06:52:00,
2013-10-06 03:11:00,60.0,58.0,30.00,SW,228,0.0,1.0,92,0.00,,,0.00,,2013-10-06 07:11:00,
2013-10-06 03:22:00,60.0,58.0,29.99,SW,228,0.0,1.0,93,0.00,,,0.00,,2013-10-06 07:22:00,
2013-10-06 03:42:00,60.0,58.0,29.98,SW,228,0.0,1.0,93,0.00,,,0.00,,2013-10-06 07:42:00,
2013-10-06 03:52:00,60.0,58.0,29.98,SW,228,0.0,2.0,93,0.00,,,0.00,,2013-10-06 07:52:00,
2013-10-06 04:12:00,60.0,58.0,29.97,SW,228,0.0,1.0,93,0.00,,,0.00,,2013-10-06 08:12:00,
2013-10-06 04:22:00,60.0,58.0,29.97,SW,228,0.0,2.0,93,0.00,,,0.00,,2013-10-06 08:22:00,
2013-10-06 04:42:00,60.0,58.0,29.97,SW,228,0.0,1.0,93,0.00,,,0.00,,2013-10-06 08:42:00,
2013-10-06 04:52:00,60.0,58.0,29.97,SW,228,0.0,1.0,93,0.00,,,0.00,,2013-10-06 08:52:00,
2013-10-06 05:11:00,60.0,58.0,29.97,SW,228,0.0,1.0,94,0.00,,,0.00,,2013-10-06 09:11:00,
2013-10-06 05:22:00,60.0,58.0,29.97,SW,228,0.0,1.0,94,0.00,,,0.00,,2013-10-06 09:22:00,
2013-10-06 05:53:00,59.0,57.0,29.96,SW,228,0.0,1.0,94,0.00,,,0.00,,2013-10-06 09:53:00,
2013-10-06 06:13:00,59.0,57.0,29.97,SW,228,0.0,1.0,93,0.00,,,0.00,,2013-10-06 10:13:00,
2013-10-06 06:23:00,59.0,57.0,29.97,SW,228,0.0,1.0,94,0.00,,,0.00,,2013-10-06 10:23:00,
2013-10-06 06:43:00,59.0,57.0,29.97,SW,228,0.0,1.0,94,0.00,,,0.00,,2013-10-06 10:43:00,
2013-10-06 06:53:00,59.0,57.0,29.97,SW,228,0.0,1.0,94,0.00,,,0.00,,2013-10-06 10:53:00,
2013-10-06 07:12:00,59.0,57.0,29.98,SW,228,0.0,2.0,94,0.00,,,0.00,,2013-10-06 11:12:00,
2013-10-06 07:22:00,60.0,58.0,29.98,SW,228,0.0,2.0,93,0.00,,,0.00,,2013-10-06 11:22:00,
2013-10-06 07:52:00,59.0,57.0,29.97,SW,227,0.0,2.0,93,0.00,,,0.00,,2013-10-06 11:52:00,
2013-10-06 08:12:00,59.0,57.0,29.97,SW,227,0.0,2.0,93,0.00,,,0.00,,2013-10-06 12:12:00,
2013-10-06 08:22:00,59.0,57.0,29.97,SW,234,0.0,1.0,94,0.00,,,0.00,,2013-10-06 12:22:00,
2013-10-06 08:42:00,59.0,58.0,29.97,SW,234,0.0,0.0,95,0.00,,,0.00,,2013-10-06 12:42:00,
2013-10-06 08:52:00,60.0,58.0,29.97,SW,234,0.0,0.0,93,0.00,,,0.00,,2013-10-06 12:52:00,
2013-10-06 09:11:00,61.0,59.0,29.97,SW,226,0.0,1.0,93,0.00,,,0.00,,2013-10-06 13:11:00,
2013-10-06 09:21:00,62.0,60.0,29.98,SW,226,0.0,0.0,92,0.00,,,0.00,,2013-10-06 13:21:00,
2013-10-06 09:42:00,63.0,60.0,29.98,SW,223,0.0,1.0,90,0.00,,,0.00,,2013-10-06 13:42:00,
2013-10-06 11:54:00,73.0,63.0,29.95,East,94,0.0,5.0,72,0.00,,,0.00,,2013-10-06 15:54:00,
2013-10-06 12:12:00,71.0,61.0,29.95,WSW,249,1.0,6.0,70,0.00,,,0.00,,2013-10-06 16:12:00,
2013-10-06 12:23:00,72.0,60.0,29.94,SSW,197,3.0,7.0,67,0.00,,,0.00,,2013-10-06 16:23:00,
2013-10-06 12:42:00,72.0,61.0,29.95,West,261,0.0,4.0,68,0.00,,,0.00,,2013-10-06 16:42:00,
2013-10-06 12:53:00,72.0,64.0,29.94,WSW,254,0.0,5.0,75,0.00,,,0.00,,2013-10-06 16:53:00,
2013-10-06 13:12:00,73.0,63.0,29.93,East,90,1.0,4.0,71,0.00,,,0.00,,2013-10-06 17:12:00,
2013-10-06 13:22:00,73.0,61.0,29.93,West,266,0.0,3.0,67,0.00,,,0.00,,2013-10-06 17:22:00,
2013-10-06 13:42:00,73.0,63.0,29.92,West,266,0.0,0.0,71,0.00,,,0.00,,2013-10-06 17:42:00,
2013-10-06 13:52:00,74.0,63.0,29.91,ENE,64,0.0,2.0,69,0.00,,,0.00,,2013-10-06 17:52:00,
2013-10-06 14:12:00,75.0,63.0,29.91,ESE,112,0.0,4.0,67,0.00,,,0.00,,2013-10-06 18:12:00,
2013-10-06 14:22:00,74.0,64.0,29.91,SE,143,0.0,3.0,70,0.00,,,0.00,,2013-10-06 18:22:00,
2013-10-06 14:43:00,73.0,63.0,29.89,SE,144,0.0,0.0,70,0.00,,,0.00,,2013-10-06 18:43:00,
2013-10-06 14:52:00,73.0,63.0,29.89,SE,144,0.0,1.0,70,0.00,,,0.00,,2013-10-06 18:52:00,
2013-10-06 15:11:00,74.0,61.0,29.89,ESE,102,0.0,4.0,64,0.00,,,0.00,,2013-10-06 19:11:00,
2013-10-06 15:22:00,74.0,60.0,29.88,ENE,69,0.0,3.0,62,0.00,,,0.00,,2013-10-06 19:22:00,
2013-10-06 15:42:00,75.0,61.0,29.87,NE,50,0.0,1.0,61,0.00,,,0.00,,2013-10-06 19:42:00,
2013-10-06 15:52:00,76.0,62.0,29.87,NE,50,0.0,2.0,61,0.00,,,0.00,,2013-10-06 19:52:00,
2013-10-06 16:11:00,75.0,62.0,29.87,ESE,104,0.0,1.0,63,0.00,,,0.00,,2013-10-06 20:11:00,
2013-10-06 16:22:00,75.0,63.0,29.87,West,263,0.0,1.0,67,0.00,,,0.00,,2013-10-06 20:22:00,
2013-10-06 16:52:00,72.0,61.0,29.87,West,263,0.0,2.0,69,0.00,,,0.00,,2013-10-06 20:52:00,
2013-10-06 17:12:00,70.0,62.0,29.86,West,265,0.0,3.0,75,0.00,,,0.00,,2013-10-06 21:12:00,
2013-10-06 17:22:00,69.0,61.0,29.85,West,265,0.0,2.0,77,0.00,,,0.00,,2013-10-06 21:22:00,
2013-10-06 17:44:00,68.0,62.0,29.85,West,265,0.0,2.0,80,0.00,,,0.00,,2013-10-06 21:44:00,
2013-10-06 18:13:00,67.0,60.0,29.85,West,267,0.0,3.0,77,0.00,,,0.00,,2013-10-06 22:13:00,
2013-10-06 18:24:00,67.0,60.0,29.85,WSW,249,0.0,5.0,77,0.00,,,0.00,,2013-10-06 22:24:00,
2013-10-06 18:43:00,67.0,59.0,29.85,West,263,0.0,3.0,75,0.00,,,0.00,,2013-10-06 22:43:00,
2013-10-06 18:53:00,68.0,60.0,29.85,WSW,247,0.0,8.0,76,0.00,,,0.00,,2013-10-06 22:53:00,
2013-10-06 19:12:00,67.0,61.0,29.85,West,270,0.0,3.0,80,0.00,,,0.00,,2013-10-06 23:12:00,
2013-10-06 19:22:00,67.0,59.0,29.86,West,263,1.0,5.0,76,0.00,,,0.00,,2013-10-06 23:22:00,
2013-10-06 19:53:00,65.0,60.0,29.86,WSW,243,0.0,3.0,83,0.00,,,0.00,,2013-10-06 23:53:00,
2013-10-06 20:12:00,65.0,60.0,29.86,SW,236,0.0,3.0,84,0.00,,,0.00,,2013-10-07 00:12:00,
2013-10-06 20:22:00,64.0,59.0,29.85,West,259,1.0,4.0,84,0.00,,,0.00,,2013-10-07 00:22:00,
2013-10-06 20:42:00,65.0,60.0,29.85,West,260,1.0,3.0,84,0.00,,,0.00,,2013-10-07 00:42:00,
2013-10-06 20:52:00,64.0,59.0,29.85,WSW,257,0.0,2.0,85,0.00,,,0.00,,2013-10-07 00:52:00,
2013-10-06 21:11:00,64.0,60.0,29.85,WSW,257,0.0,2.0,87,0.00,,,0.00,,2013-10-07 01:11:00,
2013-10-06 21:22:00,63.0,59.0,29.85,WSW,257,0.0,2.0,87,0.00,,,0.00,,2013-10-07 01:22:00,
2013-10-06 21:42:00,64.0,60.0,29.85,WSW,254,0.0,3.0,87,0.00,,,0.00,,2013-10-07 01:42:00,
2013-10-06 21:53:00,64.0,60.0,29.85,WSW,253,0.0,2.0,87,0.00,,,0.00,,2013-10-07 01:53:00,
2013-10-06 22:12:00,64.0,60.0,29.85,WSW,253,0.0,1.0,88,0.00,,,0.00,,2013-10-07 02:12:00,
2013-10-06 22:22:00,63.0,59.0,29.86,WSW,253,0.0,1.0,88,0.00,,,0.00,,2013-10-07 02:22:00,
2013-10-06 22:42:00,63.0,60.0,29.85,WSW,253,0.0,1.0,89,0.00,,,0.00,,2013-10-07 02:42:00,
2013-10-06 22:53:00,63.0,60.0,29.85,WSW,253,0.0,0.0,90,0.00,,,0.00,,2013-10-07 02:53:00,
2013-10-06 23:12:00,63.0,60.0,29.85,WSW,253,0.0,1.0,90,0.00,,,0.00,,2013-10-07 03:12:00,
2013-10-06 23:22:00,63.0,60.0,29.85,WSW,253,0.0,0.0,91,0.00,,,0.00,,2013-10-07 03:22:00,
2013-10-06 23:54:00,63.0,61.0,29.84,WSW,253,0.0,0.0,92,0.00,,,0.00,,2013-10-07 03:54:00,